Location: Baix
(44.7118°N, 4.7648°E)
Time: 03:21:31
(UTC+00:00)

USA 267 - Visible Passes

Search period start: 25 November 2020 00:00
Search period end: 05 December 2020 00:00
Orbit: 1098 x 1110 km, 122.9° (Epoch: 23 November)

Date Brightness Start Highest point End Pass type
(mag) Time Alt. Az. Time Alt. Az. Time Alt. Az.
25 Nov 3.9 16:39:04 10° E 16:45:00 39° NNE 16:50:57 10° NW visible
25 Nov 3.1 18:25:00 41° ESE 18:27:34 85° NE 18:34:08 10° NW visible
25 Nov 4.9 20:12:22 27° WSW 20:12:22 27° WSW 20:16:36 10° WNW visible
26 Nov 3.4 17:40:50 22° E 17:44:58 55° NNE 17:51:19 10° NW visible
26 Nov 3.7 19:28:12 55° SW 19:28:12 55° SW 19:34:24 10° WNW visible
27 Nov 3.9 16:56:38 10° E 17:02:33 39° NNE 17:08:31 10° NW visible
27 Nov 3.1 18:43:59 64° ESE 18:45:08 86° NE 18:51:43 10° NW visible
27 Nov 5.2 20:31:22 22° W 20:31:22 22° W 20:34:08 10° WNW visible
28 Nov 3.4 17:59:44 33° E 18:02:31 55° NNE 18:08:52 10° NW visible
28 Nov 4.1 19:47:07 45° W 19:47:07 45° W 19:51:57 10° WNW visible
29 Nov 3.8 17:15:28 16° ENE 17:20:07 39° NNE 17:26:04 10° NW visible
29 Nov 3.1 19:02:50 85° N 19:02:50 85° N 19:09:16 10° NW visible
29 Nov 5.5 20:50:11 16° WNW 20:50:11 16° WNW 20:51:42 10° WNW visible
30 Nov 4.2 16:32:16 10° ENE 16:37:52 32° N 16:43:28 10° NW visible
30 Nov 3.4 18:18:31 45° ENE 18:20:05 55° NNE 18:26:26 10° NW visible
30 Nov 4.6 20:05:53 33° WNW 20:05:53 33° WNW 20:09:31 10° WNW visible
01 Dec 3.8 17:34:11 23° ENE 17:37:41 39° NNE 17:43:38 10° NW visible
01 Dec 3.5 19:21:32 62° NW 19:21:32 62° NW 19:26:50 10° NW visible
01 Dec 5.8 21:08:54 11° WNW 21:08:54 11° WNW 21:09:15 10° WNW visible
02 Dec 4.2 16:49:50 10° ENE 16:55:25 32° N 17:01:02 10° NW visible
02 Dec 3.3 18:37:11 54° NE 18:37:39 55° NNE 18:43:59 10° NW visible
02 Dec 5.0 20:24:32 25° WNW 20:24:32 25° WNW 20:27:04 10° WNW visible
03 Dec 3.8 17:52:48 29° ENE 17:55:14 39° NNE 18:01:12 10° NW visible
03 Dec 4.1 19:40:09 44° NW 19:40:09 44° NW 19:44:24 10° NW visible
04 Dec 4.2 17:08:23 14° ENE 17:12:59 32° N 17:18:35 10° NW visible
04 Dec 3.5 18:55:45 54° N 18:55:45 54° N 19:01:34 10° NW visible
04 Dec 5.4 20:43:06 18° WNW 20:43:06 18° WNW 20:44:38 10° WNW visible
